| time (UTC) | temp C | wind direction | speed KPH | gust KPH | rain 1hr cm | rain 24hr cm | rain mn cm | humidity % | barometer mb |
| 20260504214238 | 20 | 49 | 1.6 | 1.6 | 0.00 | 0.00 | 0.00 | 36 | 1005.8 |
| 20260504213736 | 20 | 154 | 4.8 | 8.0 | 0.00 | 0.00 | 0.00 | 36 | 1006.1 |
| 20260504213232 | 20 | 204 | 4.8 | 4.8 | 0.00 | 0.00 | 0.00 | 36 | 1005.6 |
| 20260504212729 | 20 | 250 | 8.0 | 9.7 | 0.00 | 0.00 | 0.00 | 36 | 1005.8 |
| 20260504212226 | 20 | 329 | 3.2 | 4.8 | 0.00 | 0.00 | 0.00 | 38 | 1005.9 |
| 20260504211723 | 20 | 229 | 4.8 | 8.0 | 0.00 | 0.00 | 0.00 | 38 | 1005.9 |
| 20260504211219 | 20 | 126 | 4.8 | 8.0 | 0.00 | 0.00 | 0.00 | 38 | 1005.8 |
| 20260504210717 | 20 | 139 | 4.8 | 4.8 | 0.00 | 0.00 | 0.00 | 37 | 1005.7 |
| 20260504210214 | 20 | 295 | 3.2 | 3.2 | 0.00 | 0.00 | 0.00 | 35 | 1005.8 |
| 20260504205711 | 20 | 166 | 6.4 | 8.0 | 0.00 | 0.00 | 0.00 | 36 | 1005.8 |
| 20260504205208 | 20 | 199 | 4.8 | 4.8 | 0.00 | 0.00 | 0.00 | 36 | 1005.8 |
| 20260504204707 | 20 | 218 | 4.8 | 4.8 | 0.00 | 0.00 | 0.00 | 36 | 1005.9 |
| 20260504204205 | 20 | 180 | 4.8 | 4.8 | 0.00 | 0.00 | 0.00 | 36 | 1005.7 |
| 20260504203703 | 21 | 187 | 6.4 | 9.7 | 0.00 | 0.00 | 0.00 | 35 | 1005.9 |
| 20260504203201 | 20 | 323 | 3.2 | 3.2 | 0.00 | 0.00 | 0.00 | 35 | 1005.9 |
| 20260504202700 | 20 | 191 | 4.8 | 9.7 | 0.00 | 0.00 | 0.00 | 35 | 1005.8 |
| 20260504202158 | 20 | 196 | 4.8 | 8.0 | 0.00 | 0.00 | 0.00 | 34 | 1005.8 |
| 20260504201655 | 20 | 192 | 3.2 | 4.8 | 0.00 | 0.00 | 0.00 | 35 | 1005.8 |
| 20260504201152 | 21 | 265 | 4.8 | 4.8 | 0.00 | 0.00 | 0.00 | 34 | 1005.8 |
| 20260504200650 | 21 | 163 | 9.7 | 11.3 | 0.00 | 0.00 | 0.00 | 33 | 1005.9 |
| 20260504200146 | 21 | 193 | 4.8 | 4.8 | 0.00 | 0.00 | 0.00 | 33 | 1005.8 |
| 20260504195642 | 21 | 155 | 4.8 | 4.8 | 0.00 | 0.00 | 0.00 | 35 | 1005.8 |
| 20260504195138 | 21 | 299 | 1.6 | 3.2 | 0.00 | 0.00 | 0.00 | 34 | 1005.7 |
| 20260504194635 | 20 | 182 | 3.2 | 4.8 | 0.00 | 0.00 | 0.00 | 36 | 1005.8 |
| 20260504194131 | 21 | 27 | 8.0 | 11.3 | 0.00 | 0.00 | 0.00 | 35 | 1005.7 |
| 20260504193627 | 21 | 200 | 4.8 | 8.0 | 0.00 | 0.00 | 0.00 | 34 | 1005.9 |
| 20260504193126 | 21 | 271 | 4.8 | 9.7 | 0.00 | 0.00 | 0.00 | 33 | 1006.1 |
| 20260504192624 | 21 | 222 | 6.4 | 8.0 | 0.00 | 0.00 | 0.00 | 34 | 1005.7 |
| 20260504192121 | 21 | 310 | 4.8 | 4.8 | 0.00 | 0.00 | 0.00 | 34 | 1005.9 |
| 20260504191620 | 21 | 164 | 4.8 | 9.7 | 0.00 | 0.00 | 0.00 | 35 | 1005.9 |
| 20260504191115 | 21 | 352 | 3.2 | 4.8 | 0.00 | 0.00 | 0.00 | 34 | 1005.9 |
| 20260504190612 | 21 | 84 | 4.8 | 4.8 | 0.00 | 0.00 | 0.00 | 33 | 1006.2 |
| 20260504190109 | 20 | 183 | 8.0 | 9.7 | 0.00 | 0.00 | 0.00 | 35 | 1006.0 |
| 20260504185605 | 20 | 137 | 4.8 | 4.8 | 0.00 | 0.00 | 0.00 | 35 | 1006.0 |
| 20260504185101 | 19 | 197 | 8.0 | 9.7 | 0.00 | 0.00 | 0.00 | 37 | 1006.0 |
| 20260504184557 | 20 | 225 | 6.4 | 9.7 | 0.00 | 0.00 | 0.00 | 36 | 1006.4 |
| 20260504184052 | 19 | 217 | 6.4 | 8.0 | 0.00 | 0.00 | 0.00 | 36 | 1006.3 |
| 20260504183550 | 20 | 187 | 4.8 | 9.7 | 0.00 | 0.00 | 0.00 | 35 | 1006.2 |
| 20260504183048 | 20 | 322 | 4.8 | 8.0 | 0.00 | 0.00 | 0.00 | 34 | 1006.4 |
| 20260504182545 | 20 | 95 | 9.7 | 11.3 | 0.00 | 0.00 | 0.00 | 34 | 1006.3 |
| 20260504182042 | 19 | 201 | 6.4 | 8.0 | 0.00 | 0.00 | 0.00 | 35 | 1006.2 |
| 20260504181539 | 20 | 338 | 6.4 | 9.7 | 0.00 | 0.00 | 0.00 | 34 | 1006.3 |
| 20260504181037 | 21 | 338 | 4.8 | 4.8 | 0.00 | 0.00 | 0.00 | 33 | 1006.5 |
| 20260504180536 | 21 | 48 | 6.4 | 9.7 | 0.00 | 0.00 | 0.00 | 33 | 1006.3 |
| 20260504180034 | 20 | 226 | 6.4 | 8.0 | 0.00 | 0.00 | 0.00 | 33 | 1006.4 |
| 20260504175531 | 21 | 289 | 6.4 | 8.0 | 0.00 | 0.00 | 0.00 | 33 | 1006.3 |
| 20260504175028 | 21 | 23 | 9.7 | 16.1 | 0.00 | 0.00 | 0.00 | 32 | 1006.4 |
| 20260504174526 | 20 | 213 | 6.4 | 8.0 | 0.00 | 0.00 | 0.00 | 34 | 1006.1 |
| 20260504174022 | 20 | 234 | 4.8 | 4.8 | 0.00 | 0.00 | 0.00 | 34 | 1006.2 |
| 20260504173519 | 20 | 192 | 4.8 | 8.0 | 0.00 | 0.00 | 0.00 | 33 | 1006.4 |
| 20260504173017 | 20 | 200 | 4.8 | 9.7 | 0.00 | 0.00 | 0.00 | 34 | 1006.4 |
| 20260504172513 | 20 | 183 | 8.0 | 11.3 | 0.00 | 0.00 | 0.00 | 33 | 1006.5 |
| 20260504172009 | 20 | 228 | 4.8 | 4.8 | 0.00 | 0.00 | 0.00 | 32 | 1006.6 |
| 20260504171506 | 20 | 173 | 4.8 | 9.7 | 0.00 | 0.00 | 0.00 | 33 | 1006.5 |
| 20260504171003 | 20 | 281 | 3.2 | 4.8 | 0.00 | 0.00 | 0.00 | 33 | 1006.5 |
| 20260504170500 | 20 | 120 | 8.0 | 9.7 | 0.00 | 0.00 | 0.00 | 33 | 1006.6 |
| 20260504160419 | 18 | 193 | 6.4 | 8.0 | 0.00 | 0.00 | 0.00 | 36 | 1007.2 |
| 20260504150843 | 17 | 256 | 11.3 | 12.9 | 0.00 | 0.00 | 0.00 | 39 | 1007.8 |
| 20260504150340 | 17 | 303 | 4.8 | 4.8 | 0.00 | 0.00 | 0.00 | 38 | 1007.5 |
| 20260504141310 | 16 | 307 | 3.2 | 4.8 | 0.00 | 0.00 | 0.00 | 43 | 1008.2 |
| 20260504140806 | 15 | 322 | 1.6 | 3.2 | 0.00 | 0.00 | 0.00 | 46 | 1008.4 |
| 20260504140302 | 15 | 158 | 8.0 | 9.7 | 0.00 | 0.00 | 0.00 | 47 | 1008.5 |
| 20260504130731 | 12 | 358 | 3.2 | 3.2 | 0.00 | 0.00 | 0.00 | 54 | 1008.8 |
| 20260504130226 | 12 | 347 | 0.0 | 1.6 | 0.00 | 0.00 | 0.00 | 51 | 1008.9 |
| 20260504120151 | 10 | 320 | 4.8 | 4.8 | 0.00 | 0.00 | 0.00 | 58 | 1009.2 |
| 20260504110618 | 7 | 344 | 0.0 | 0.0 | 0.00 | 0.00 | 0.00 | 68 | 1009.2 |
| 20260504110114 | 7 | 340 | 0.0 | 0.0 | 0.00 | 0.00 | 0.00 | 69 | 1009.2 |
| 20260504100540 | 6 | 340 | 1.6 | 1.6 | 0.00 | 0.00 | 0.00 | 70 | 1009.2 |
| 20260504081933 | 5 | 2 | 3.2 | 3.2 | 0.00 | 0.00 | 0.00 | 70 | 1009.3 |
| 20260504081430 | 5 | 315 | 1.6 | 3.2 | 0.00 | 0.00 | 0.00 | 70 | 1009.2 |
| 20260504080926 | 5 | 351 | 1.6 | 1.6 | 0.00 | 0.00 | 0.00 | 69 | 1009.2 |
| 20260504080423 | 5 | 351 | 0.0 | 0.0 | 0.00 | 0.00 | 0.00 | 69 | 1009.3 |
| 20260504070351 | 5 | 341 | 0.0 | 0.0 | 0.00 | 0.00 | 0.00 | 67 | 1009.3 |
| 20260504050738 | 3 | 344 | 0.0 | 0.0 | 0.00 | 0.00 | 0.00 | 80 | 1009.3 |
| 20260504050235 | 3 | 345 | 0.0 | 0.0 | 0.00 | 0.00 | 0.00 | 78 | 1009.3 |
| 20260504045733 | 2 | 345 | 0.0 | 0.0 | 0.00 | 0.00 | 0.00 | 77 | 1009.4 |
| 20260504045227 | 2 | 345 | 0.0 | 0.0 | 0.00 | 0.00 | 0.00 | 79 | 1009.4 |
| 20260504044725 | 2 | 345 | 0.0 | 0.0 | 0.00 | 0.00 | 0.00 | 76 | 1009.5 |
| 20260504044223 | 2 | 345 | 0.0 | 0.0 | 0.00 | 0.00 | 0.00 | 78 | 1009.4 |
| 20260504043720 | 2 | 345 | 0.0 | 0.0 | 0.00 | 0.00 | 0.00 | 76 | 1009.4 |
| 20260504043216 | 2 | 345 | 0.0 | 0.0 | 0.00 | 0.00 | 0.00 | 77 | 1009.4 |
| 20260504042714 | 2 | 345 | 0.0 | 0.0 | 0.00 | 0.00 | 0.00 | 75 | 1009.3 |
| 20260504042210 | 2 | 345 | 0.0 | 0.0 | 0.00 | 0.00 | 0.00 | 75 | 1009.5 |
| 20260504041706 | 2 | 345 | 0.0 | 1.6 | 0.00 | 0.00 | 0.00 | 75 | 1009.3 |
| 20260504041202 | 2 | 345 | 0.0 | 0.0 | 0.00 | 0.00 | 0.00 | 78 | 1009.2 |
| 20260504040659 | 2 | 343 | 0.0 | 0.0 | 0.00 | 0.00 | 0.00 | 78 | 1009.4 |
| 20260504040156 | 2 | 343 | 0.0 | 0.0 | 0.00 | 0.00 | 0.00 | 75 | 1009.3 |
| 20260504035652 | 2 | 343 | 0.0 | 0.0 | 0.00 | 0.00 | 0.00 | 77 | 1009.2 |
| 20260504035150 | 2 | 343 | 0.0 | 0.0 | 0.00 | 0.00 | 0.00 | 77 | 1009.3 |
| 20260504034647 | 2 | 343 | 0.0 | 0.0 | 0.00 | 0.00 | 0.00 | 76 | 1009.2 |
| 20260504034144 | 2 | 343 | 0.0 | 0.0 | 0.00 | 0.00 | 0.00 | 76 | 1009.5 |
| 20260504033642 | 2 | 343 | 0.0 | 0.0 | 0.00 | 0.00 | 0.00 | 76 | 1009.2 |
| 20260504033139 | 2 | 343 | 0.0 | 0.0 | 0.00 | 0.00 | 0.00 | 76 | 1009.2 |
| 20260504032635 | 3 | 343 | 0.0 | 0.0 | 0.00 | 0.00 | 0.00 | 76 | 1009.1 |
| 20260504032133 | 3 | 343 | 0.0 | 0.0 | 0.00 | 0.00 | 0.00 | 74 | 1009.1 |
| 20260504031630 | 3 | 343 | 0.0 | 0.0 | 0.00 | 0.00 | 0.00 | 75 | 1009.1 |
| 20260504031126 | 3 | 343 | 1.6 | 1.6 | 0.00 | 0.00 | 0.00 | 73 | 1009.3 |
| 20260504030623 | 3 | 343 | 0.0 | 0.0 | 0.00 | 0.00 | 0.00 | 74 | 1009.1 |
| 20260504030120 | 3 | 342 | 0.0 | 0.0 | 0.00 | 0.00 | 0.00 | 75 | 1009.1 |
| 20260504025617 | 2 | 342 | 0.0 | 0.0 | 0.00 | 0.00 | 0.00 | 76 | 1009.1 |
| 20260504025114 | 2 | 343 | 0.0 | 0.0 | 0.00 | 0.00 | 0.00 | 78 | 1009.1 |
| 20260504024611 | 2 | 343 | 0.0 | 0.0 | 0.00 | 0.00 | 0.00 | 77 | 1009.1 |
| 20260504024107 | 2 | 343 | 0.0 | 0.0 | 0.00 | 0.00 | 0.00 | 76 | 1009.2 |
| 20260504023604 | 2 | 343 | 0.0 | 0.0 | 0.00 | 0.00 | 0.00 | 78 | 1009.4 |
| 20260504023059 | 2 | 343 | 0.0 | 0.0 | 0.00 | 0.00 | 0.00 | 80 | 1008.9 |
| 20260504022556 | 2 | 343 | 0.0 | 0.0 | 0.00 | 0.00 | 0.00 | 82 | 1009.1 |
| 20260504022052 | 1 | 342 | 0.0 | 0.0 | 0.00 | 0.00 | 0.00 | 87 | 1009.1 |
| 20260504021550 | 1 | 342 | 0.0 | 0.0 | 0.00 | 0.00 | 0.00 | 88 | 1009.1 |
| 20260504021047 | 2 | 342 | 0.0 | 0.0 | 0.00 | 0.00 | 0.00 | 87 | 1009.2 |
| 20260504020544 | 2 | 342 | 0.0 | 0.0 | 0.00 | 0.00 | 0.00 | 85 | 1009.3 |
| 20260504020040 | 2 | 342 | 0.0 | 0.0 | 0.00 | 0.00 | 0.00 | 86 | 1009.0 |
| 20260504015537 | 2 | 342 | 0.0 | 0.0 | 0.00 | 0.00 | 0.00 | 86 | 1008.9 |
| 20260504015032 | 2 | 342 | 0.0 | 0.0 | 0.00 | 0.00 | 0.00 | 86 | 1008.9 |
| 20260504014529 | 2 | 342 | 0.0 | 0.0 | 0.00 | 0.00 | 0.00 | 86 | 1008.8 |
| 20260504014026 | 2 | 342 | 0.0 | 0.0 | 0.00 | 0.00 | 0.00 | 86 | 1008.9 |
| 20260504013524 | 2 | 342 | 1.6 | 1.6 | 0.00 | 0.00 | 0.00 | 84 | 1008.8 |
| 20260504013021 | 2 | 343 | 0.0 | 0.0 | 0.00 | 0.00 | 0.00 | 84 | 1008.9 |
| 20260504012518 | 2 | 343 | 0.0 | 0.0 | 0.00 | 0.00 | 0.00 | 82 | 1008.8 |
| 20260504012016 | 3 | 343 | 0.0 | 0.0 | 0.00 | 0.00 | 0.00 | 82 | 1008.8 |
| 20260504011512 | 3 | 343 | 0.0 | 0.0 | 0.00 | 0.00 | 0.00 | 79 | 1008.7 |
| 20260504011008 | 3 | 343 | 0.0 | 0.0 | 0.00 | 0.00 | 0.00 | 79 | 1008.7 |
| 20260504010504 | 3 | 343 | 0.0 | 0.0 | 0.00 | 0.00 | 0.00 | 78 | 1008.5 |
| 20260504010000 | 3 | 343 | 0.0 | 0.0 | 0.00 | 0.00 | 0.00 | 78 | 1008.6 |
| 20260504005457 | 3 | 343 | 0.0 | 0.0 | 0.00 | 0.00 | 0.00 | 76 | 1008.5 |
| 20260504004954 | 3 | 343 | 0.0 | 0.0 | 0.00 | 0.00 | 0.00 | 72 | 1008.2 |
| 20260504004452 | 4 | 343 | 0.0 | 0.0 | 0.00 | 0.00 | 0.00 | 73 | 1008.1 |
| 20260504003949 | 4 | 343 | 0.0 | 0.0 | 0.00 | 0.00 | 0.00 | 72 | 1008.5 |
| 20260504003445 | 4 | 343 | 0.0 | 0.0 | 0.00 | 0.00 | 0.00 | 69 | 1008.1 |
| 20260504002942 | 5 | 343 | 0.0 | 0.0 | 0.00 | 0.00 | 0.00 | 68 | 1008.1 |
| 20260504002439 | 5 | 343 | 0.0 | 0.0 | 0.00 | 0.00 | 0.00 | 67 | 1008.2 |
| 20260504001936 | 5 | 343 | 0.0 | 0.0 | 0.00 | 0.00 | 0.00 | 66 | 1008.1 |
| 20260504001434 | 5 | 343 | 0.0 | 0.0 | 0.00 | 0.00 | 0.00 | 67 | 1008.2 |
| 20260504000930 | 5 | 343 | 0.0 | 0.0 | 0.00 | 0.00 | 0.00 | 64 | 1008.3 |
| 20260504000427 | 5 | 343 | 0.0 | 0.0 | 0.00 | 0.00 | 0.00 | 64 | 1007.7 |
| 20260503235925 | 5 | 343 | 0.0 | 0.0 | 0.00 | 0.00 | 0.00 | 65 | 1007.7 |
| 20260503235422 | 6 | 343 | 0.0 | 0.0 | 0.00 | 0.00 | 0.00 | 68 | 1008.0 |
| 20260503234920 | 6 | 343 | 0.0 | 0.0 | 0.00 | 0.00 | 0.00 | 63 | 1007.6 |
| 20260503234417 | 6 | 343 | 0.0 | 0.0 | 0.00 | 0.00 | 0.00 | 64 | 1007.5 |
| 20260503233915 | 6 | 341 | 0.0 | 0.0 | 0.00 | 0.00 | 0.00 | 64 | 1007.6 |
| 20260503233411 | 6 | 345 | 0.0 | 0.0 | 0.00 | 0.00 | 0.00 | 63 | 1007.6 |
| 20260503232908 | 7 | 328 | 1.6 | 1.6 | 0.00 | 0.00 | 0.00 | 61 | 1007.5 |
| 20260503232405 | 7 | 342 | 0.0 | 0.0 | 0.00 | 0.00 | 0.00 | 59 | 1007.4 |
| 20260503231903 | 7 | 345 | 0.0 | 0.0 | 0.00 | 0.00 | 0.00 | 57 | 1007.4 |
| 20260503231400 | 7 | 319 | 1.6 | 3.2 | 0.00 | 0.00 | 0.00 | 58 | 1007.4 |
| 20260503230855 | 7 | 343 | 0.0 | 1.6 | 0.00 | 0.00 | 0.00 | 58 | 1007.6 |
| 20260503230352 | 8 | 357 | 0.0 | 0.0 | 0.00 | 0.00 | 0.00 | 55 | 1007.3 |
| 20260503225850 | 8 | 342 | 3.2 | 3.2 | 0.00 | 0.00 | 0.00 | 51 | 1007.4 |
| 20260503225346 | 8 | 319 | 1.6 | 3.2 | 0.00 | 0.00 | 0.00 | 53 | 1007.3 |
| 20260503224842 | 8 | 329 | 1.6 | 1.6 | 0.00 | 0.00 | 0.00 | 52 | 1007.2 |
| 20260503224340 | 8 | 289 | 3.2 | 3.2 | 0.00 | 0.00 | 0.00 | 52 | 1007.2 |
| 20260503223837 | 8 | 158 | 6.4 | 8.0 | 0.00 | 0.00 | 0.00 | 48 | 1007.3 |
| 20260503223335 | 8 | 336 | 1.6 | 1.6 | 0.00 | 0.00 | 0.00 | 50 | 1007.0 |
| 20260503222830 | 8 | 316 | 1.6 | 3.2 | 0.00 | 0.00 | 0.00 | 50 | 1006.8 |
| 20260503222329 | 8 | 336 | 1.6 | 1.6 | 0.00 | 0.00 | 0.00 | 51 | 1007.2 |
| 20260503221826 | 8 | 262 | 4.8 | 4.8 | 0.00 | 0.00 | 0.00 | 50 | 1007.0 |
| 20260503221325 | 8 | 315 | 3.2 | 3.2 | 0.00 | 0.00 | 0.00 | 52 | 1007.0 |
| 20260503220821 | 8 | 335 | 1.6 | 1.6 | 0.00 | 0.00 | 0.00 | 50 | 1006.9 |
| 20260503220318 | 8 | 294 | 6.4 | 8.0 | 0.00 | 0.00 | 0.00 | 48 | 1006.8 |
| 20260503215814 | 8 | 316 | 4.8 | 4.8 | 0.00 | 0.00 | 0.00 | 48 | 1006.8 |
| 20260503215312 | 9 | 328 | 3.2 | 4.8 | 0.00 | 0.00 | 0.00 | 48 | 1006.6 |
| 20260503214810 | 9 | 299 | 3.2 | 4.8 | 0.00 | 0.00 | 0.00 | 49 | 1006.6 |
| 20260503214306 | 9 | 345 | 1.6 | 1.6 | 0.00 | 0.00 | 0.00 | 45 | 1006.8 |